Change the Weather History Date:

Thursday, October 4, 2012

  Actual Average Record
Temperature  
Mean Temperature 62 °F -  
Max Temperature 64 °F 66 °F 79 °F (1959)
Min Temperature 59 °F 49 °F 33 °F (1964)
Degree Days  
Heating Degree Days 4    
Growing Degree Days 12 (Base 50)    
Moisture  
Dew Point 61 °F    
Average Humidity 100    
Maximum Humidity 100    
Minimum Humidity 100    
Precipitation  
Precipitation 0.00 in - - ()
Sea Level Pressure  
Sea Level Pressure 30.07 in    
Wind  
Wind Speed 5 mph (North)    
Max Wind Speed 12 mph    
Max Gust Speed -    
Visibility 2 miles    
Events Fog , Rain    
Averages and records for this station are not official NWS values.
T = Trace of Precipitation, MM = Missing Value Source: NWS Daily Summary

Daily Weather History Graph

Daily Weather History Graph

Search for Another Location

Airport or City:

Trip Planner

Search our weather history database for the weather conditions in past years. The results will help you decide how hot, cold, wet, or windy it might be!

Date:

Astronomy

Oct. 04, 2012 Rise Set
Actual Time 6:41 AM EDT 6:17 PM EDT
Civil Twilight 6:13 AM EDT 6:44 PM EDT
Nautical Twilight 5:41 AM EDT 7:16 PM EDT
Astronomical Twilight 5:09 AM EDT 7:49 PM EDT
Moon 8:46 PM EDT (10/4) 10:59 AM EDT (10/4)
Length of Visible Light 12h 30m
Length of Day
11h 35m
Waning Gibbous, 82% of the Moon is Illuminated
Oct 4
Waning Gibbous
Oct 8
Last Quarter
Oct 15
New
Oct 21
First Quarter
Oct 29
Full

Hourly Weather History & Observations

Time (EDT) Temp. Dew Point Humidity Pressure Visibility Wind Dir Wind Speed Gust Speed Precip Events Conditions
12:05 AM 60.8 °F 60.8 °F 100% 30.12 in 0.8 mi Calm Calm - N/A   Mist
12:56 AM 61.0 °F 61.0 °F 100% 30.12 in 0.5 mi Calm Calm - N/A Fog Fog
1:56 AM 61.0 °F 61.0 °F 100% 30.12 in 0.5 mi North 3.5 mph - 0.00 in Fog Fog
2:56 AM 61.0 °F 61.0 °F 100% 30.11 in 0.5 mi NNW 3.5 mph - N/A Fog Fog
3:21 AM 60.8 °F 60.8 °F 100% 30.10 in 1.2 mi Calm Calm - N/A   Overcast
3:38 AM 60.8 °F 60.8 °F 100% 30.10 in 2.0 mi Calm Calm - N/A   Overcast
3:56 AM 60.1 °F 60.1 °F 100% 30.11 in 2.5 mi NNW 4.6 mph - N/A   Overcast
4:40 AM 60.8 °F 60.8 °F 100% 30.10 in 1.8 mi North 3.5 mph - N/A   Overcast
4:56 AM 60.1 °F 60.1 °F 100% 30.11 in 2.0 mi NNW 5.8 mph - N/A   Overcast
5:56 AM 60.1 °F 60.1 °F 100% 30.11 in 2.5 mi NNW 4.6 mph - N/A   Overcast
6:10 AM 60.8 °F 60.8 °F 100% 30.11 in 3.0 mi NNW 6.9 mph - N/A   Overcast
6:23 AM 60.8 °F 60.8 °F 100% 30.11 in 2.5 mi NNW 5.8 mph - N/A   Overcast
6:56 AM 60.1 °F 60.1 °F 100% 30.11 in 1.5 mi North 6.9 mph - N/A   Overcast
7:56 AM 60.1 °F 60.1 °F 100% 30.12 in 0.8 mi NNW 5.8 mph - N/A   Mist
8:56 AM 62.1 °F 62.1 °F 100% 30.12 in 0.5 mi North 5.8 mph - N/A Fog Fog
9:56 AM 64.0 °F 64.0 °F 100% 30.11 in 1.0 mi North 4.6 mph - N/A   Overcast
10:26 AM 64.4 °F 64.4 °F 100% 30.10 in 0.5 mi North 6.9 mph - N/A Fog Fog
10:56 AM 64.0 °F 64.0 °F 100% 30.11 in 0.2 mi North 5.8 mph - N/A Fog Fog
11:53 AM 62.6 °F 62.6 °F 100% 30.10 in 0.5 mi North 5.8 mph - N/A Fog Fog
11:56 AM 63.0 °F 63.0 °F 100% 30.10 in 0.5 mi North 4.6 mph - N/A Fog Fog
12:27 PM 62.6 °F 62.6 °F 100% 30.09 in 1.0 mi North 9.2 mph - N/A   Overcast
12:56 PM 63.0 °F 63.0 °F 100% 30.09 in 1.0 mi North 10.4 mph - N/A   Overcast
1:44 PM 62.6 °F 62.6 °F 100% 30.07 in 0.5 mi North 9.2 mph - N/A Fog Fog
1:52 PM 62.6 °F 62.6 °F 100% 30.07 in 0.2 mi North 11.5 mph - N/A Fog Fog
1:56 PM 62.1 °F 62.1 °F 100% 30.07 in 0.2 mi North 9.2 mph - N/A Fog Fog
2:10 PM 62.6 °F 62.6 °F 100% 30.06 in 0.5 mi NNE 9.2 mph - N/A Fog Fog
2:21 PM 62.6 °F 62.6 °F 100% 30.06 in 2.0 mi North 8.1 mph - N/A   Overcast
2:37 PM 62.6 °F 62.6 °F 100% 30.06 in 1.5 mi North 8.1 mph - N/A   Overcast
2:52 PM 62.6 °F 62.6 °F 100% 30.05 in 2.0 mi NNE 9.2 mph - N/A   Overcast
2:56 PM 62.1 °F 62.1 °F 100% 30.06 in 2.0 mi North 6.9 mph - N/A   Overcast
3:08 PM 62.6 °F 62.6 °F 100% 30.06 in 5.0 mi North 10.4 mph - N/A   Overcast
3:16 PM 62.6 °F 62.6 °F 100% 30.06 in 1.8 mi North 9.2 mph - N/A   Overcast
3:42 PM 62.6 °F 62.6 °F 100% 30.05 in 0.8 mi North 8.1 mph - N/A   Overcast
3:56 PM 61.0 °F 61.0 °F 100% 30.05 in 0.8 mi North 9.2 mph - N/A   Mist
4:56 PM 61.0 °F 61.0 °F 100% 30.03 in 0.5 mi NNE 8.1 mph - N/A Fog Fog
5:25 PM 60.8 °F 60.8 °F 100% 30.03 in 1.0 mi NW 5.8 mph - N/A   Overcast
5:36 PM 60.8 °F 60.8 °F 100% 30.04 in 0.8 mi NNW 5.8 mph - N/A   Overcast
5:56 PM 61.0 °F 61.0 °F 100% 30.03 in 0.5 mi North 4.6 mph - N/A Fog Fog
6:28 PM 60.8 °F 60.8 °F 100% 30.04 in 1.0 mi North 4.6 mph - N/A   Mist
6:56 PM 60.1 °F 60.1 °F 100% 30.05 in 0.8 mi NNW 5.8 mph - N/A   Mist
7:21 PM 60.8 °F 60.8 °F 100% 30.04 in 1.0 mi NNW 6.9 mph - N/A   Mist
7:56 PM 59.0 °F 59.0 °F 100% 30.04 in 1.5 mi NNW 5.8 mph - N/A   Overcast
8:38 PM 59.0 °F 59.0 °F 100% 30.02 in 3.0 mi North 6.9 mph - N/A   Overcast
8:56 PM 59.0 °F 59.0 °F 100% 30.04 in 10.0 mi NNW 4.6 mph - N/A   Overcast
10:37 PM 59.0 °F 59.0 °F 100% 30.03 in 2.0 mi NNW 4.6 mph - N/A   Overcast
10:48 PM 59.0 °F 59.0 °F 100% 30.04 in 1.2 mi NW 6.9 mph - N/A   Overcast
10:56 PM 59.0 °F 59.0 °F 100% 30.04 in 1.0 mi NW 5.8 mph - N/A   Mist
11:06 PM 59.0 °F 59.0 °F 100% 30.03 in 3.0 mi NW 4.6 mph - 0.00 in Rain Light Rain
11:56 PM 59.0 °F 59.0 °F 100% 30.02 in 10.0 mi Calm Calm - 0.00 in   Overcast